Theta_e
287 287 287 287 288 288 288 288 288 289 289 289 289 288 289 289 289 289 290 290 290 289 289 288 288 288 288 287 287 287 286 286 286 285 285 285 284 284 284 284 283 283 283 283 283 283 283 283 282 282 282 283 282 283 283 283 282 282 282 283 283 283
287 287 287 287 287 287 288 288 288 288 289 289 289 289 289 289 289 289 289 289 289 288 288 288 288 287 287 287 287 286 285 285 285 284 284 283 283 283 283 283 282 282 282 282 282 281 282 281 281 281 281 281 281 281 281 281 281 281 281 282 282 282
287 288 288 287 287 288 288 288 288 288 288 288 289 288 288 288 289 289 289 288 288 287 287 286 286 286 286 286 285 284 284 283 283 283 283 283 282 282 282 281 281 281 281 281 281 280 280 280 280 280 280 280 280 280 280 280 280 279 280 280 280 281
288 288 288 287 287 287 286 288 288 288 288 288 289 288 288 288 288 288 287 287 287 286 286 285 285 285 285 284 283 283 283 283 282 282 282 281 281 281 280 280 280 280 280 280 279 279 279 279 279 279 279 279 278 278 279 279 278 278 278 279 279 279
288 288 287 286 286 287 286 287 287 288 288 288 288 288 288 288 288 288 287 286 286 285 285 284 284 284 283 283 283 282 282 281 281 281 280 280 280 280 279 279 279 279 279 278 278 278 278 278 278 278 277 277 277 277 277 278 277 277 277 277 278 278
288 287 286 286 286 286 286 287 287 288 288 288 288 287 288 288 288 287 286 285 285 284 283 283 283 283 283 282 282 281 281 280 280 280 279 279 279 278 278 278 278 278 278 277 277 277 277 276 276 276 277 276 276 276 276 276 277 277 277 277 277 277
287 287 287 286 286 286 287 287 287 287 287 288 287 287 288 288 287 285 284 283 282 283 283 282 283 282 282 281 281 280 279 279 279 278 278 278 278 277 277 277 277 277 277 276 276 276 276 275 275 275 275 275 275 275 275 276 276 276 277 277 277 277
288 287 286 286 286 286 287 287 287 287 287 287 287 287 287 286 285 284 283 282 282 282 282 282 282 281 281 280 279 279 278 278 277 277 277 276 276 276 276 276 276 276 275 275 275 275 274 275 274 274 274 274 275 275 275 276 276 276 276 277 276 276
287 287 287 286 286 287 287 287 286 286 286 286 287 287 286 285 284 284 284 284 283 283 282 282 281 280 280 279 279 278 277 276 276 276 275 275 275 275 275 275 274 274 274 274 274 273 273 273 273 274 274 274 274 275 276 276 276 276 276 276 276 276
287 287 287 286 286 287 286 286 286 286 286 286 286 286 286 285 284 284 284 284 283 283 282 281 280 280 279 278 277 276 276 275 275 275 275 274 274 274 273 273 273 273 273 273 273 273 273 273 273 273 273 274 275 275 276 276 276 276 276 276 276 276
287 287 287 287 286 285 285 285 286 286 286 286 285 285 285 285 285 285 284 284 283 282 281 279 279 279 278 277 276 275 275 274 274 274 274 273 273 273 273 272 272 272 272 272 272 272 272 272 272 272 272 273 274 275 275 275 275 275 275 275 275 275
288 287 287 286 285 285 285 285 285 286 285 285 285 285 285 285 285 284 284 283 282 281 280 279 278 277 276 276 275 274 274 273 273 273 272 272 272 272 272 272 272 272 271 271 271 271 271 271 272 271 271 274 274 275 274 274 274 275 274 274 274 274
288 287 287 286 285 285 285 285 285 286 285 285 283 283 284 285 284 284 283 282 280 279 278 278 277 276 275 275 274 273 273 272 272 272 271 271 271 271 270 271 271 271 271 270 270 270 270 271 271 271 273 274 275 274 274 274 274 274 274 273 273 273
288 287 286 286 286 286 285 285 285 284 284 284 284 284 284 284 283 282 282 280 279 278 277 276 276 275 274 273 272 271 271 270 270 270 270 270 270 270 270 270 270 270 270 270 270 270 270 270 270 272 273 274 274 275 274 274 274 273 273 273 273 273
288 288 287 286 286 285 285 286 285 284 285 284 284 283 282 282 282 281 280 278 277 276 276 276 275 274 272 272 271 270 269 269 269 269 268 268 269 269 269 269 269 269 269 269 268 268 269 269 270 271 272 273 274 275 275 273 273 273 272 273 273 272
290 289 289 288 287 287 286 286 285 285 285 284 283 281 281 281 280 280 278 277 276 275 275 274 273 272 271 270 269 269 269 268 268 268 268 268 268 268 268 268 267 268 268 268 267 267 268 268 269 270 272 273 273 274 274 273 273 272 272 272 272 271
290 290 289 289 288 287 286 285 286 285 283 282 281 281 280 280 279 278 277 276 275 274 274 273 272 271 270 269 268 268 268 268 268 267 268 268 268 267 267 267 267 266 266 266 266 266 266 267 269 270 271 272 273 274 274 272 272 271 271 271 271 271
289 289 288 289 287 286 286 286 285 284 282 281 280 280 280 279 278 277 276 275 274 273 273 272 271 270 269 269 268 267 268 267 267 267 267 267 267 267 266 266 266 265 265 265 265 265 265 266 268 269 270 271 272 273 271 271 270 270 270 270 270 270
288 288 288 287 287 286 285 285 283 282 280 279 279 278 278 277 277 276 275 275 274 273 273 272 271 270 269 269 268 267 267 267 266 266 267 266 266 266 266 265 265 265 264 263 263 263 264 265 266 268 269 270 272 271 270 270 269 269 269 269 270 270
286 286 286 286 285 285 285 282 282 280 278 278 277 277 276 276 277 276 275 275 274 273 272 272 270 269 268 268 267 267 267 267 267 266 265 265 265 265 265 264 264 264 264 263 263 263 263 263 265 268 269 270 271 271 269 269 269 268 268 269 270 270
285 285 285 285 283 284 282 281 280 279 278 277 276 276 276 276 277 276 275 274 273 272 271 270 269 269 267 267 267 265 265 265 265 265 264 264 264 264 264 264 263 263 263 263 263 263 263 263 264 266 268 269 270 270 270 269 269 268 268 268 268 269
282 282 283 283 283 282 280 279 279 278 278 276 276 275 276 276 277 276 275 274 272 271 269 268 267 267 266 266 265 264 264 265 264 263 264 264 264 264 264 263 263 261 262 262 262 262 263 263 263 264 267 269 270 271 270 270 269 268 268 268 268 268
283 282 283 283 282 279 279 278 278 278 277 276 275 275 276 277 277 275 273 272 270 269 268 267 266 265 265 265 264 264 263 264 264 263 262 262 263 262 262 261 261 261 261 262 263 263 263 263 263 263 267 269 270 271 271 270 269 269 269 269 269 269
282 282 281 282 279 277 277 278 278 278 277 275 275 276 278 276 274 273 271 270 269 267 266 265 265 264 263 262 262 262 262 262 262 262 261 262 262 260 259 260 260 261 261 262 262 262 263 263 264 264 266 269 270 271 272 270 270 271 271 270 270 270
281 281 281 279 277 276 276 277 277 277 276 274 276 277 276 273 272 271 270 269 267 265 264 263 262 262 261 260 260 260 261 261 260 259 259 259 259 259 259 259 260 260 261 262 263 263 263 263 263 266 266 269 270 271 272 273 272 274 272 270 269 270
281 280 280 277 275 275 276 276 277 276 275 275 278 274 272 271 270 269 268 266 265 263 262 261 260 260 260 260 260 260 260 260 259 259 260 260 260 261 261 262 262 261 261 261 262 263 264 264 265 267 268 269 271 272 273 273 273 274 272 272 271 271
280 280 278 276 274 274 274 276 277 275 274 277 275 271 270 269 267 266 265 264 263 262 261 260 260 260 259 259 260 260 260 259 258 260 261 259 260 261 261 261 261 261 261 261 261 263 264 265 266 267 268 270 270 271 272 273 274 274 275 272 272 272
280 279 277 275 273 273 273 274 276 275 276 276 272 271 268 266 265 265 264 263 262 261 260 259 258 258 258 258 259 260 261 261 260 261 261 261 261 260 260 260 261 260 261 261 262 263 264 265 266 267 268 269 269 270 271 273 274 274 274 274 273 274
277 277 276 275 273 272 272 272 274 276 276 271 270 268 266 265 265 264 263 261 261 260 259 260 261 260 258 258 259 260 260 260 260 260 260 261 261 260 260 260 260 261 261 262 263 263 265 265 266 267 268 268 268 268 269 270 271 273 273 272 271 271
277 277 276 276 275 272 271 271 271 273 271 269 268 266 265 264 264 264 262 261 261 261 260 261 260 260 261 260 260 261 260 260 260 260 260 261 261 261 261 261 261 261 262 262 263 264 264 265 266 267 267 267 268 270 271 271 272 271 271 269 270 268
276 277 277 277 277 273 270 270 270 271 268 268 266 264 264 264 263 263 262 261 261 261 260 261 260 261 262 261 259 260 261 261 261 260 260 260 260 261 261 261 261 262 262 263 263 263 263 265 266 266 269 270 272 271 271 271 271 271 270 270 271 266
277 277 277 278 277 273 271 270 270 268 267 266 264 264 264 264 263 262 261 260 261 261 260 260 260 260 260 260 261 259 259 260 262 261 260 260 263 265 267 266 262 263 263 263 265 266 265 265 266 270 272 272 272 273 274 273 273 272 270 271 270 266
275 276 276 277 275 272 271 270 269 266 266 265 264 264 265 263 263 263 262 259 261 261 261 261 260 260 260 260 260 260 260 260 261 265 266 266 266 267 268 269 270 270 270 268 266 267 270 270 271 271 271 272 272 273 273 272 272 271 270 270 266 263
274 274 274 276 275 273 270 269 268 265 264 264 263 264 264 263 264 264 263 261 261 260 260 261 260 259 259 259 259 259 259 260 261 262 264 265 265 266 267 267 267 268 268 268 268 267 266 268 269 270 271 271 272 272 272 271 270 270 269 268 266 262
275 275 276 276 274 272 270 268 267 265 263 262 262 262 263 262 264 264 263 261 260 260 260 260 260 260 259 258 258 258 258 259 259 261 262 262 263 263 265 265 266 266 266 267 267 268 268 268 269 270 270 271 271 271 270 270 269 268 268 266 262 261
276 275 275 274 272 271 269 267 267 264 262 261 261 261 262 262 263 263 262 261 260 261 260 260 260 260 260 259 259 259 258 259 259 259 259 260 260 260 261 263 263 264 265 265 266 267 267 268 268 269 270 271 270 270 269 268 265 266 265 264 260 260
274 274 272 271 270 268 267 267 266 263 262 260 260 260 260 260 261 261 259 258 259 261 261 261 261 260 259 259 258 258 258 258 258 258 257 258 258 258 258 259 259 261 263 263 264 265 266 267 268 269 269 269 268 268 267 265 262 261 261 261 260 260
271 271 269 267 267 266 266 266 264 261 260 259 259 259 259 259 259 259 260 259 259 260 261 261 260 260 259 259 258 258 259 259 258 258 258 258 257 257 256 257 258 258 260 263 264 264 265 266 267 268 268 268 267 266 264 260 260 259 260 259 260 260
Wind_Speed
9 9 9 9 8 8 8 8 7 7 7 9 10 12 11 11 9 9 8 8 6 6 7 8 7 6 6 6 6 5 5 5 4 4 3 3 2 2 2 3 3 3 3 3 3 3 3 4 4 4 4 4 3 4 3 3 4 4 4 4 4 4
10 11 11 10 10 9 8 9 7 9 9 9 10 10 10 9 9 9 9 7 7 7 7 6 6 6 6 6 5 5 5 4 4 4 3 3 2 2 3 3 3 3 3 3 3 3 3 4 3 3 4 3 3 3 4 4 4 4 5 5 4 4
10 9 8 7 7 7 8 8 10 9 8 9 10 12 11 10 9 8 7 7 8 8 8 7 6 6 5 6 6 6 5 4 4 3 3 2 3 2 2 3 3 3 2 2 3 3 3 3 3 3 3 3 4 4 4 4 5 5 5 5 6 5
10 8 7 6 8 8 10 9 8 9 10 9 10 9 9 9 8 7 7 6 7 8 8 7 6 5 5 6 5 5 5 4 3 3 2 3 2 2 2 2 2 2 2 2 2 3 3 3 4 4 4 4 5 5 3 4 5 6 6 5 6 6
9 9 10 10 10 10 11 10 9 10 10 10 9 9 9 9 8 7 7 7 7 8 7 6 6 6 6 6 5 5 4 4 3 2 2 2 2 2 2 2 2 2 2 2 3 3 3 4 4 4 4 5 5 5 5 5 6 6 6 7 7 7
9 9 11 12 12 12 12 10 10 10 10 10 9 11 11 10 8 8 7 6 7 7 7 6 6 6 6 6 4 5 4 3 3 2 2 2 2 2 2 2 2 2 3 3 3 3 3 4 4 4 4 5 5 5 6 6 6 6 6 7 7 8
13 13 12 12 12 12 12 12 11 11 11 10 10 10 10 9 7 7 6 6 7 7 7 7 6 6 6 5 4 4 3 3 3 2 2 2 2 2 2 2 2 3 3 3 4 4 4 4 4 5 5 5 5 5 6 6 6 6 7 7 7 7
12 10 12 12 13 13 12 12 12 11 10 11 10 10 9 7 6 7 7 7 8 7 8 7 6 6 6 5 4 4 3 3 2 2 2 2 2 2 2 2 2 2 3 3 3 3 4 4 4 5 5 5 5 5 6 6 6 7 7 7 7 7
13 15 14 13 13 12 12 13 12 11 10 11 10 8 7 7 6 7 9 9 9 8 7 6 6 6 5 4 4 3 3 3 2 2 2 2 2 2 2 2 2 2 2 2 2 3 3 4 4 5 5 5 6 6 6 7 7 7 7 7 7 8
14 14 15 14 14 13 11 10 11 12 11 11 10 10 9 7 8 9 9 9 8 7 7 6 6 5 5 4 3 3 3 3 2 2 2 2 2 2 2 2 1 1 1 2 2 3 3 4 5 5 5 5 6 7 7 7 7 8 8 8 8 8
15 17 16 14 13 13 13 11 11 10 8 8 8 8 9 9 9 9 9 9 8 7 6 6 6 5 5 4 4 4 3 3 3 2 2 2 2 2 2 1 1 2 2 2 2 3 3 4 4 3 5 6 8 7 8 8 8 9 9 9 9 8
13 13 13 13 15 15 14 13 10 10 10 10 9 9 8 9 9 10 9 9 8 7 7 7 6 5 5 4 4 3 3 3 2 2 2 1 2 2 2 1 2 1 2 3 3 3 3 3 3 4 9 10 9 10 8 9 9 9 10 10 11 10
11 11 12 13 14 15 14 12 11 11 11 9 8 8 9 9 9 9 9 8 7 7 7 7 6 5 5 4 3 3 3 3 2 2 1 1 2 1 2 1 1 2 2 3 3 4 3 4 4 9 11 13 14 10 10 9 10 10 10 10 10 11
12 14 14 15 15 14 11 11 11 11 12 9 10 9 9 9 9 9 8 8 8 7 7 6 6 5 5 4 3 3 3 2 2 1 1 1 1 1 1 1 1 2 3 3 4 4 4 5 7 11 12 14 14 13 10 10 9 9 9 10 10 10
14 15 14 14 14 15 12 14 12 14 13 12 10 8 9 9 9 9 8 8 8 7 7 6 6 5 5 4 3 3 3 2 2 1 1 0 0 1 1 1 2 2 2 3 4 5 5 6 8 11 13 14 15 15 13 10 10 10 11 11 11 11
11 12 15 15 15 15 14 16 10 11 9 9 9 10 9 10 9 8 8 8 7 7 7 7 6 5 5 4 3 3 3 2 1 1 1 1 1 2 1 1 2 2 3 3 5 5 6 7 8 12 14 15 15 15 13 10 11 11 11 12 11 10
10 11 11 10 9 8 7 7 8 8 8 9 10 9 10 9 9 8 8 8 7 7 7 7 6 6 5 4 4 3 3 2 2 2 2 2 2 2 2 2 2 2 3 4 5 6 6 7 11 12 14 15 15 15 14 10 10 10 10 11 11 11
10 11 11 8 9 8 10 11 10 11 10 9 10 10 9 9 8 8 8 8 8 8 8 7 7 6 5 5 4 4 3 3 3 3 2 2 2 2 2 2 2 3 4 4 5 6 8 7 11 12 13 15 14 16 10 8 9 10 10 11 10 10
7 7 6 8 9 10 11 9 9 9 9 9 8 8 9 9 9 9 9 8 9 8 8 8 7 6 6 5 5 4 4 4 4 3 3 3 2 2 2 2 3 3 3 5 5 7 8 7 9 11 13 14 15 12 8 8 8 9 10 10 10 10
3 5 7 8 9 10 8 9 10 10 10 9 9 9 9 9 10 9 10 9 8 9 8 7 7 7 6 5 5 4 4 3 2 3 3 2 2 2 2 2 3 3 3 5 6 6 8 8 9 13 14 15 15 12 9 8 8 9 9 10 10 9
7 7 7 8 10 9 10 10 11 10 10 10 10 10 10 11 11 10 10 10 9 8 8 6 6 6 6 5 5 4 4 4 4 2 2 2 2 2 2 2 3 3 4 5 6 9 10 9 9 11 13 14 14 11 8 8 8 9 9 9 10 10
8 7 9 11 11 10 11 10 10 11 12 10 10 11 11 13 12 10 8 8 8 7 6 6 7 6 6 6 5 4 4 3 3 3 2 1 2 2 2 2 3 4 4 5 6 7 7 8 7 8 13 14 14 14 9 8 8 9 10 10 10 11
9 10 12 9 10 10 10 10 9 10 10 9 9 11 14 11 8 8 8 8 7 7 7 6 6 6 5 5 5 4 4 3 3 2 2 2 2 2 3 3 4 4 5 5 6 6 7 6 8 8 12 14 14 15 12 8 9 9 10 10 10 10
6 4 4 6 8 9 9 9 13 10 9 8 11 17 9 8 8 8 8 7 7 7 6 6 5 5 5 5 4 4 3 3 2 2 2 2 1 2 4 4 4 4 5 5 6 7 7 7 10 8 11 13 14 14 15 10 9 10 10 11 10 11
7 8 8 6 7 8 8 12 14 11 10 11 18 9 7 8 8 8 7 7 7 7 7 6 7 6 4 5 4 4 3 3 2 2 2 2 2 3 4 4 4 4 4 4 5 5 6 6 7 11 10 12 14 14 14 16 13 16 12 11 11 12
6 6 5 5 6 7 8 13 13 12 13 19 9 8 7 6 7 8 10 9 7 7 6 6 6 5 5 5 5 4 3 3 2 1 2 2 2 3 3 3 3 3 4 4 4 4 5 5 6 8 12 11 14 14 14 14 16 17 12 11 11 11
8 7 5 6 7 8 9 9 13 14 16 12 9 11 12 13 12 13 13 11 8 7 6 6 5 5 4 4 5 4 3 3 3 2 2 3 3 3 3 3 2 3 4 4 4 5 5 6 7 7 9 13 11 12 13 15 16 17 17 12 10 11
3 5 9 7 8 9 8 9 10 15 17 7 11 8 13 14 14 13 13 10 7 7 7 7 5 4 4 5 4 4 3 3 3 3 2 2 3 2 3 3 2 3 4 4 4 5 7 7 7 8 7 7 9 10 14 17 17 17 16 15 11 15
8 10 11 12 10 9 8 10 11 10 3 9 7 9 14 12 14 13 10 8 7 6 7 8 6 6 5 4 4 3 3 3 3 3 3 3 3 3 3 3 3 3 3 5 6 7 7 8 8 7 6 6 8 9 10 11 10 13 12 7 7 11
12 12 12 14 11 9 9 10 10 10 6 8 9 14 13 12 14 11 9 8 7 7 7 6 7 7 5 5 5 4 4 4 4 4 5 4 4 3 3 3 3 4 4 6 6 7 7 7 7 6 7 8 8 8 9 9 8 8 7 6 9 5
13 13 13 14 11 12 11 14 12 10 10 9 12 15 16 11 13 10 11 7 6 6 6 5 6 5 5 4 4 4 4 4 5 5 4 5 4 4 4 4 5 5 6 6 7 7 7 7 7 7 9 11 14 12 10 9 8 8 6 9 13 6
12 13 13 12 7 9 13 12 11 10 7 10 13 15 15 12 10 9 7 6 6 6 6 5 5 4 4 4 4 4 3 7 10 7 5 4 8 14 15 12 8 8 7 7 7 6 6 7 8 14 18 17 16 16 17 14 14 12 10 13 13 6
11 10 11 9 5 9 11 13 11 10 8 10 10 13 13 13 9 7 6 7 7 7 6 6 5 5 4 4 3 3 3 2 5 11 14 12 10 11 12 13 14 14 12 8 6 7 13 14 15 16 15 16 16 16 15 14 12 12 13 12 7 4
9 11 14 10 9 10 9 10 10 12 11 10 10 10 11 15 11 8 8 7 6 6 5 5 5 5 5 4 4 4 3 2 2 2 8 10 8 8 8 9 9 9 9 9 9 8 7 10 12 13 14 15 15 14 13 13 11 12 11 10 6 2
12 11 10 9 9 9 10 11 11 10 11 12 13 10 12 15 13 11 7 6 7 7 7 6 6 6 5 5 5 5 5 4 3 2 1 5 7 7 7 5 5 6 7 8 9 10 10 11 11 13 13 13 12 12 12 11 11 10 8 7 3 2
9 10 10 9 10 11 10 12 10 11 12 13 11 11 12 12 10 11 7 7 8 8 7 6 6 6 5 5 5 5 5 4 4 3 2 2 1 2 4 5 6 6 6 7 8 9 9 10 10 11 11 11 10 11 11 10 7 6 4 4 2 2
8 7 7 8 7 8 9 11 7 9 10 13 14 13 12 11 9 6 7 11 10 6 7 6 6 6 5 5 5 5 5 5 4 3 4 3 2 3 2 2 1 4 5 5 6 7 8 8 9 9 9 9 9 9 10 7 2 2 2 2 1 2
6 7 4 5 6 7 8 10 7 11 11 12 12 13 12 11 9 6 6 6 8 6 6 6 5 6 6 6 5 5 4 3 4 3 3 3 3 3 3 4 3 3 7 10 8 6 7 8 8 8 7 7 8 8 8 3 2 2 2 3 3 3
Wind_Direction
185 185 188 185 178 172 165 160 158 156 149 147 144 142 142 141 139 138 137 137 129 124 118 114 110 108 106 106 106 106 105 100 96 95 92 94 77 65 59 53 49 40 36 37 22 20 17 14 11 3 359 351 357 349 350 354 342 328 321 316 317 311
187 189 186 183 179 173 170 165 166 167 159 152 148 143 144 144 145 145 139 133 126 120 120 118 117 118 119 120 122 115 108 104 106 102 95 83 70 65 53 55 47 36 30 26 24 13 16 10 4 357 347 340 354 340 343 340 329 319 315 315 314 304
187 190 187 178 171 173 174 176 177 170 163 162 156 153 153 154 152 148 140 137 134 133 132 130 128 124 120 118 117 112 110 110 103 94 97 92 71 58 59 52 45 29 25 21 18 17 6 7 359 353 344 345 342 338 332 327 327 325 319 320 314 312
188 181 174 174 175 180 186 185 180 173 173 167 164 162 162 158 156 151 144 142 141 143 142 138 133 132 128 124 120 114 115 109 101 107 114 100 82 70 56 53 40 28 17 16 17 16 11 2 360 353 350 346 342 338 338 327 329 322 318 316 314 316
184 179 178 181 187 189 189 187 185 179 177 173 173 168 168 166 161 153 152 146 145 146 141 138 140 141 138 130 123 118 117 116 117 123 113 100 98 84 64 40 33 18 18 13 16 12 8 2 353 350 346 340 337 331 327 324 320 318 316 315 313 314
178 177 184 187 191 191 190 188 185 182 182 179 174 177 171 168 161 156 148 145 144 141 143 149 148 147 141 128 118 123 131 137 134 118 107 101 87 82 71 53 26 19 17 15 13 9 1 354 347 339 336 330 326 320 316 315 313 308 305 305 305 309
190 193 190 189 191 190 190 188 187 186 184 179 180 180 174 165 156 149 147 145 144 151 155 156 154 144 132 121 126 140 142 141 130 113 100 96 94 70 55 40 30 18 15 12 7 355 353 346 335 332 325 321 314 311 308 305 303 301 301 299 297 298
193 189 188 189 191 191 189 188 189 188 183 185 184 179 168 164 156 157 151 153 152 161 164 159 150 136 126 130 142 151 149 133 125 125 112 94 86 71 58 41 24 15 8 1 357 345 335 330 323 320 316 314 311 306 304 302 300 298 297 295 296 298
198 196 191 193 192 190 189 187 186 184 182 185 185 174 163 165 162 164 162 164 163 165 168 159 146 132 136 150 156 159 156 140 126 122 107 94 89 74 59 38 33 5 5 342 342 329 327 315 312 313 313 311 309 307 305 307 304 300 299 298 297 296
197 198 199 192 191 191 187 186 186 186 185 181 173 177 175 167 170 172 170 167 167 168 161 148 134 133 145 146 157 173 161 143 133 119 116 104 94 87 69 35 15 347 340 329 322 320 318 311 309 315 319 317 316 313 310 306 303 300 298 296 294 295
204 199 193 190 186 188 188 189 191 188 183 173 180 172 176 166 169 173 172 171 170 164 151 139 130 138 147 158 177 179 161 134 119 110 107 93 94 86 66 37 358 334 329 322 318 313 314 309 311 321 328 323 318 316 310 305 302 302 299 297 296 296
202 195 191 185 185 190 193 193 189 185 184 192 184 180 171 165 175 171 171 173 165 151 147 141 138 151 158 178 186 171 142 120 108 103 92 81 73 75 55 18 348 331 330 325 320 318 304 302 297 302 302 304 306 308 303 301 297 296 295 296 297 295
197 191 191 190 190 193 194 191 184 184 188 178 168 176 171 172 171 171 169 164 152 149 146 144 152 155 171 181 179 148 124 106 102 92 81 64 63 48 43 354 337 340 327 319 314 309 302 292 287 296 302 306 305 303 299 296 295 293 291 289 289 293
197 195 195 196 197 194 188 186 185 186 193 177 177 175 167 174 170 165 161 151 151 151 150 149 151 160 170 179 173 140 114 106 102 95 83 41 54 34 12 334 327 323 316 310 306 297 294 289 286 297 303 305 303 299 296 293 291 290 288 288 286 287
201 198 196 193 195 198 191 190 184 189 186 175 175 153 168 171 165 159 155 152 153 154 152 152 155 161 176 182 155 133 127 119 125 132 150 241 2 307 265 294 316 299 304 301 297 295 290 285 289 298 303 302 300 299 297 291 286 285 284 284 284 282
203 201 199 195 191 194 195 195 180 183 167 154 150 161 167 163 162 157 152 151 154 154 155 157 155 167 177 169 152 142 140 138 159 149 206 203 238 234 260 270 272 279 291 296 295 292 287 286 287 297 301 301 300 299 296 287 286 283 281 280 282 281
204 207 207 204 193 181 140 164 167 149 148 154 159 167 160 167 158 153 155 159 158 157 160 160 165 169 168 164 153 150 152 160 165 191 210 209 225 223 239 246 255 268 275 283 285 286 282 276 284 295 300 301 300 297 297 290 286 282 279 279 279 279
200 200 203 188 176 179 179 184 169 159 163 161 161 164 165 156 154 157 162 164 166 169 168 164 166 167 166 162 159 163 171 171 189 201 205 211 228 220 230 246 243 260 264 275 280 282 277 276 286 297 299 299 299 300 297 289 283 279 278 279 278 280
200 198 166 172 183 178 184 165 153 151 145 159 164 155 159 161 166 173 172 168 170 172 169 170 165 164 163 163 165 171 179 183 197 205 197 212 223 222 234 247 251 254 268 271 272 277 279 282 288 294 297 298 298 300 291 285 280 278 279 279 281 282
195 182 180 180 179 176 161 148 154 151 154 160 160 161 169 174 183 178 174 177 171 169 168 168 162 159 164 164 174 170 182 180 197 197 206 215 219 236 234 260 263 253 253 264 269 271 281 282 286 292 294 296 295 293 291 287 280 277 278 282 282 282
186 177 172 172 175 172 153 152 150 152 163 164 166 172 171 189 188 178 178 177 167 164 159 157 157 161 162 166 168 169 176 186 195 191 192 215 231 242 246 252 262 261 264 259 265 274 275 278 283 286 291 293 293 294 286 283 279 279 280 284 287 284
140 159 173 180 179 158 154 154 159 169 167 172 169 176 191 196 190 173 163 151 150 152 153 154 155 160 159 160 155 162 180 175 180 193 205 214 246 248 256 256 261 267 267 269 265 266 266 275 280 282 290 292 294 295 292 288 284 283 282 282 277 273
176 178 183 181 158 154 159 156 156 171 180 166 175 195 203 189 150 151 154 148 150 151 151 154 159 155 152 154 157 163 168 184 184 174 190 226 241 253 276 273 272 270 268 264 265 266 269 265 277 278 287 293 296 296 297 291 285 287 287 280 268 259
189 177 161 167 153 156 160 161 171 182 164 173 198 208 187 136 148 150 148 153 154 147 144 147 148 145 142 142 149 158 173 173 163 180 198 236 250 269 268 270 273 276 277 276 267 265 266 268 268 280 287 292 294 296 296 294 289 288 290 294 296 296
191 200 188 157 155 166 169 171 180 183 179 189 210 185 136 152 148 156 154 148 144 145 145 149 148 148 146 148 157 159 167 165 161 186 201 223 252 249 264 263 260 272 278 281 277 271 272 270 264 269 281 290 295 297 297 295 296 299 300 296 291 290
195 191 168 155 167 175 176 179 185 187 186 210 196 123 135 142 155 146 145 144 145 143 153 146 142 143 152 153 154 160 163 167 154 197 220 212 241 258 259 277 270 277 280 285 290 282 285 281 280 284 295 302 305 305 305 306 304 302 298 295 294 296
194 185 167 176 182 191 192 197 188 187 200 210 138 160 159 151 150 157 154 156 151 154 148 147 154 154 152 151 157 163 168 166 170 209 204 199 230 239 261 270 272 279 283 286 287 298 299 303 301 298 301 304 305 308 308 309 308 306 304 301 295 291
176 179 195 193 191 198 201 207 201 194 212 148 160 158 140 151 158 164 167 151 157 156 144 144 145 147 149 156 165 171 176 167 181 204 209 213 226 226 239 261 266 273 278 277 290 299 304 303 305 304 303 301 300 298 294 299 304 300 301 310 319 322
191 204 202 208 199 199 205 207 217 220 143 159 151 146 151 160 159 157 144 163 156 151 158 161 167 163 159 168 167 172 177 183 191 199 216 213 212 222 231 248 250 265 265 291 300 296 298 300 305 301 300 305 303 292 283 279 275 289 312 335 334 322
204 210 209 216 202 194 196 203 212 210 166 149 143 141 150 161 173 168 168 160 160 162 169 168 157 160 162 169 171 177 182 191 199 204 211 202 204 212 228 226 237 242 266 285 286 290 291 295 299 298 308 305 294 295 307 303 313 329 329 338 327 348
209 215 211 222 201 183 184 208 214 197 174 170 154 157 158 170 170 162 147 159 159 162 164 167 160 173 162 156 173 200 202 192 193 205 218 216 210 220 223 239 237 237 244 258 269 281 285 288 297 299 297 298 307 311 307 315 325 326 345 332 335 4
216 218 219 228 193 186 200 209 196 178 180 165 160 162 174 176 155 160 170 170 173 156 160 165 163 157 162 164 178 183 225 230 225 217 204 220 227 233 237 227 232 234 235 238 238 232 264 291 291 296 301 306 308 307 312 320 323 332 336 330 343 1
223 229 233 230 186 200 206 208 187 179 179 174 172 180 181 161 160 170 165 169 185 169 159 156 159 165 168 171 173 189 211 234 223 229 235 241 247 252 255 261 269 277 281 283 293 293 286 287 292 296 300 305 306 309 321 326 332 342 340 338 350 340
223 224 230 223 208 209 197 207 198 185 175 170 165 185 178 170 170 174 176 173 160 151 161 156 157 154 168 170 176 183 182 222 266 232 200 217 237 246 264 275 272 269 271 276 279 285 290 289 288 292 300 303 305 317 325 325 342 343 340 342 357 315
216 217 221 225 215 208 203 206 207 187 183 175 173 186 185 187 192 168 152 151 152 162 164 164 162 170 169 172 174 179 188 190 199 231 188 172 199 247 272 269 266 272 272 278 281 281 280 284 290 296 299 302 312 324 324 333 347 340 342 349 344 314
224 226 227 222 214 210 205 212 205 179 178 163 168 186 189 178 188 177 160 158 163 157 164 168 171 170 175 175 176 182 182 194 190 193 227 280 267 199 224 248 272 278 289 286 280 281 283 286 292 295 297 306 324 329 330 341 341 329 339 0 332 325
234 235 230 225 220 214 215 223 201 171 170 157 162 166 169 171 166 152 170 170 167 158 160 163 168 168 166 166 174 178 187 185 184 182 194 216 250 281 288 287 277 276 277 283 293 286 283 290 293 293 297 318 338 338 346 346 349 346 322 327 313 306
234 241 218 202 209 212 218 227 182 156 165 171 174 170 164 164 159 160 156 166 174 164 160 165 167 164 167 171 176 181 182 176 176 183 199 208 227 242 263 274 269 285 299 300 291 287 292 296 299 295 302 330 348 350 9 10 346 323 315 316 312 313